Decimomannu, Italy

2:29 PM CET on February 22, 2017 (GMT +0100)
Decimomannu Mil

Weather History for LIED - December, 2012

Change the Weather History Date:

Tuesday, December 25, 2012

  Actual Average Record
Temperature  
Mean Temperature 54 °F -  
Max Temperature 64 °F 57 °F 65 °F (2013)
Min Temperature 44 °F 40 °F 32 °F (2003)
Degree Days  
Heating Degree Days 11    
Growing Degree Days 4 (Base 50)    
Moisture  
Dew Point 49 °F    
Average Humidity 82    
Maximum Humidity 88    
Minimum Humidity 70    
Precipitation  
Precipitation 0.00 in 0.07 in - ()
Sea Level Pressure  
Sea Level Pressure 30.02 in    
Wind  
Wind Speed 5 mph ()    
Max Wind Speed 13 mph    
Max Gust Speed -    
Visibility 6.0 miles    
Events Fog    
Averages and records for this station are not official NWS values.
T = Trace of Precipitation, MM = Missing Value Source: Averaged Metar Reports

Daily Weather History Graph

Daily Weather History Graph

Search for Another Location

Airport or City:

Trip Planner

Search our weather history database for the weather conditions in past years. The results will help you decide how hot, cold, wet, or windy it might be!

Date:

Astronomy

Dec. 25, 2012 Rise Set
Actual Time 7:42 AM CET 5:06 PM CET
Civil Twilight 7:12 AM CET 5:36 PM CET
Nautical Twilight 6:38 AM CET 6:10 PM CET
Astronomical Twilight 6:05 AM CET 6:43 PM CET
Moon 3:02 PM CET (12/25) 5:00 AM CET (12/25)
Length of Visible Light 10h 24m
Length of Day
9h 24m
Waxing Gibbous, 92% of the Moon is Illuminated
Dec 25
Waxing Gibbous
Dec 28
Full
Jan 5
Last Quarter
Jan 11
New
Jan 19
First Quarter

Hourly Weather History & Observations

Time (CET) Temp. Windchill Dew Point Humidity Pressure Visibility Wind Dir Wind Speed Gust Speed Precip Events Conditions
12:55 AM 55.4 °F - 51.8 °F 88% 30.12 in 5.6 mi SE 9.2 mph - N/A   Mostly Cloudy
1:00 AM 56 °F - 51 °F 78% 30.13 in 6 mi SE 9.2 mph - -   Mist
1:55 AM 55.4 °F - 50.0 °F 82% 30.09 in 6.2 mi SE 9.2 mph - N/A   Scattered Clouds
2:55 AM 51.8 °F - 48.2 °F 88% 30.09 in 6.2 mi ENE 3.5 mph - N/A   Scattered Clouds
3:55 AM 46.4 °F 44.3 °F 41.0 °F 81% 30.06 in 6.2 mi NE 4.6 mph - N/A   Scattered Clouds
4:00 AM 46 °F - 42 °F 80% 30.09 in 6 mi NE 4.6 mph - -   Mostly Cloudy
4:55 AM 46.4 °F 45.2 °F 41.0 °F 81% 30.06 in 6.2 mi ENE 3.5 mph - N/A   Scattered Clouds
5:55 AM 50.0 °F - 44.6 °F 82% 30.06 in 6.2 mi East 3.5 mph - N/A   Scattered Clouds
6:55 AM 46.4 °F 44.3 °F 42.8 °F 87% 30.06 in 6.2 mi NE 4.6 mph - N/A   Scattered Clouds
7:00 AM 47 °F - 42 °F 78% 30.07 in 7 mi NE 4.6 mph - -   Partly Cloudy
7:55 AM 44.6 °F 41.4 °F 41.0 °F 87% 30.06 in 6.2 mi NNE 5.8 mph - N/A   Scattered Clouds
8:55 AM 46.4 °F - 42.8 °F 87% 30.06 in 6.2 mi NNE 2.3 mph - N/A   Partly Cloudy
9:55 AM 57.2 °F - 50.0 °F 77% 30.06 in 6.2 mi East 1.2 mph - N/A   Partly Cloudy
10:00 AM 57 °F - 51 °F 73% 30.08 in 12 mi East 1.2 mph - -   Partly Cloudy
10:55 AM 62.6 °F - 55.4 °F 77% 30.06 in 6.2 mi South 6.9 mph - N/A   Partly Cloudy
11:55 AM 64.4 °F - 55.4 °F 73% 30.04 in 6.2 mi SSE 11.5 mph - N/A   Partly Cloudy
12:55 PM 64.4 °F - 57.2 °F 77% 30.01 in 6.2 mi SSE 9.2 mph - N/A   Partly Cloudy
1:00 PM 64 °F - 57 °F 70% 30.02 in 12 mi SSE 9.2 mph - -   Scattered Clouds
1:55 PM 64.4 °F - 57.2 °F 77% 29.98 in 6.2 mi SSE 11.5 mph - N/A   Partly Cloudy
2:55 PM 62.6 °F - 57.2 °F 82% 29.95 in 6.2 mi SSE 12.7 mph - N/A   Partly Cloudy
3:55 PM 60.8 °F - 57.2 °F 88% 29.95 in 6.2 mi SSE 10.4 mph - N/A   Partly Cloudy
4:00 PM 62 °F - 57 °F 79% 29.97 in 12 mi SSE 10.4 mph - -   Scattered Clouds
4:55 PM 60.8 °F - 55.4 °F 82% 29.95 in - SE 6.9 mph - N/A   Clear
5:55 PM 57.2 °F - 53.6 °F 88% 29.95 in 6.2 mi SE 4.6 mph - N/A   Partly Cloudy
6:55 PM 53.6 °F - 50.0 °F 88% 29.95 in 6.2 mi ENE 1.2 mph - N/A   Partly Cloudy
7:00 PM 54 °F - 51 °F 85% 29.98 in 7 mi ENE 1.2 mph - -   Scattered Clouds
7:55 PM 53.6 °F - 50.0 °F 88% 29.98 in 6.2 mi SE 4.6 mph - N/A   Partly Cloudy
8:55 PM 51.8 °F - 48.2 °F 88% 29.98 in 5.0 mi SSE 2.3 mph - N/A   Partly Cloudy
9:55 PM 50.0 °F - 44.6 °F 82% 29.98 in 0.2 mi Calm Calm - N/A Fog Fog
10:00 PM 50 °F - 45 °F 78% 30.00 in 0 mi Calm Calm - - Fog Partial Fog
10:55 PM 48.2 °F - 42.8 °F 82% 29.98 in 0.2 mi North 1.2 mph - N/A Fog Fog
11:55 PM 46.4 °F - 42.8 °F 87% 29.98 in 0.2 mi North 2.3 mph - N/A Fog Fog